Theta_e
307 307 307 307 307 307 307 307 307 307 307 307 307 307 307 307 307 307 307 307 307 308 308 308 308 308 309 308 308 310 311 313 313 313 313 315 314 313 314 314 316 315 315 317 313 313 314 313 313 313 317 316 317 317 315 321 325 325 330 325 323 327 327 327 328 324 321 324 328 323 316 315 317 318 314 311 314 316 315 316 318 314 313 314 311 309 310 312
308 308 308 308 308 308 307 307 307 307 307 307 308 307 308 308 307 308 307 308 308 308 308 308 308 308 309 309 309 310 313 314 315 315 316 316 315 315 315 314 316 316 316 316 314 313 315 316 312 314 319 316 317 317 317 319 321 329 331 322 324 329 327 325 327 326 320 319 322 321 317 314 316 316 312 314 318 318 315 315 316 316 316 313 310 308 311 312
309 309 309 309 308 308 308 308 308 308 308 308 308 308 308 308 308 308 308 308 308 308 308 309 309 309 309 310 310 311 314 314 314 317 317 316 316 315 316 315 316 317 316 315 314 312 315 316 311 317 321 317 319 320 320 319 320 329 327 324 332 330 324 324 324 323 320 318 319 320 317 314 316 314 312 315 318 318 316 315 315 317 318 316 315 309 309 311
310 310 309 309 309 309 308 308 308 308 308 308 308 309 309 309 309 309 309 309 309 309 309 309 309 309 309 310 311 312 313 313 313 316 317 316 316 315 316 315 316 317 317 315 314 314 314 312 312 320 320 318 322 320 323 324 321 325 323 329 336 326 321 324 323 322 320 316 316 318 317 316 315 313 313 314 316 317 316 316 317 317 318 318 320 314 306 308
311 311 309 309 309 309 309 309 308 308 309 309 309 309 309 309 310 310 310 310 310 310 310 310 310 310 310 310 312 311 314 316 314 316 316 316 316 315 316 316 316 317 317 315 315 314 313 312 313 320 320 318 321 320 326 326 320 323 322 326 330 322 319 321 323 323 320 316 316 317 317 316 314 313 315 315 315 317 316 319 319 317 319 318 317 316 308 309
311 310 308 308 309 309 309 308 309 309 309 309 309 309 310 310 310 310 310 310 310 310 310 311 310 310 309 310 313 313 314 316 314 315 316 316 315 315 316 317 317 317 316 315 314 313 313 313 314 319 319 318 320 320 324 322 317 321 323 323 326 322 319 320 321 322 319 316 317 318 316 315 313 315 316 315 315 316 315 317 319 317 314 311 312 316 319 320
311 309 308 308 308 308 309 309 309 309 309 309 309 309 309 309 309 309 309 309 309 309 309 310 310 310 310 311 314 316 316 316 314 315 315 314 315 316 316 317 318 317 316 314 313 314 316 315 316 319 320 318 319 321 320 318 317 319 322 322 323 321 320 319 318 320 319 317 318 316 314 315 315 315 314 314 314 314 313 313 315 312 306 307 313 321 326 323
310 309 309 309 309 309 310 310 310 309 309 310 310 309 310 309 309 309 309 309 308 308 308 308 308 308 311 312 314 317 317 316 314 314 314 315 316 316 316 317 318 317 315 313 313 314 315 316 316 316 319 319 318 319 317 316 318 321 322 323 323 321 322 321 317 318 320 318 315 312 315 317 315 314 313 313 313 313 313 312 313 311 309 311 314 317 319 319
311 310 310 310 311 311 310 310 309 309 309 309 310 310 310 310 310 310 310 310 309 309 308 308 307 307 313 313 312 315 316 315 314 315 316 316 317 316 316 316 317 316 314 313 313 311 314 317 316 315 318 318 316 316 316 316 320 323 322 322 322 320 320 318 316 316 318 318 313 312 316 315 312 313 313 313 314 313 313 314 313 312 314 314 312 312 313 316
312 311 311 312 312 311 311 310 310 309 309 309 310 310 310 310 310 311 310 311 310 310 310 309 307 308 312 312 312 314 315 316 316 316 316 315 317 316 315 315 316 315 312 312 312 310 313 315 314 314 315 315 314 314 316 316 317 320 320 319 319 317 316 314 314 315 315 316 314 313 315 314 312 313 313 314 315 314 314 316 314 312 315 313 311 310 309 311
313 312 312 312 312 312 310 310 309 309 309 309 309 309 310 310 310 310 311 311 311 311 311 310 307 308 310 312 314 314 313 315 316 315 315 315 315 315 315 315 314 313 311 310 311 311 311 311 310 311 313 315 315 314 316 315 313 314 315 316 316 315 314 312 313 314 312 313 313 312 313 314 312 312 313 313 314 313 314 316 314 313 314 312 311 310 308 309
314 313 313 313 314 313 312 312 311 310 309 308 308 309 309 309 309 310 310 311 312 311 311 310 308 308 310 312 314 314 312 312 313 314 314 314 315 314 313 313 313 312 311 309 310 311 311 310 310 313 315 314 314 314 314 313 312 312 313 314 315 315 313 312 313 314 312 313 313 311 311 314 314 315 316 312 312 312 312 314 314 313 313 312 312 310 309 306
314 314 314 315 315 316 316 317 315 311 310 310 309 308 308 308 308 308 309 310 311 311 310 310 309 308 310 313 313 311 311 311 312 313 313 313 313 313 312 312 311 311 311 310 310 311 310 310 311 315 315 314 317 314 311 313 313 313 313 313 313 314 314 312 313 312 310 313 315 312 311 316 316 315 316 312 311 312 313 314 313 312 312 312 312 312 311 307
314 314 316 317 317 318 319 319 316 312 313 314 311 309 308 308 308 308 308 309 310 310 310 309 308 309 310 313 312 310 311 311 311 312 312 313 312 313 312 311 311 311 312 311 311 313 312 310 311 313 312 314 316 312 312 318 319 315 312 314 314 314 316 313 313 312 310 313 314 311 311 313 312 313 313 311 311 312 313 314 313 313 311 312 312 312 312 310
314 315 316 317 318 318 319 318 315 313 317 316 311 309 308 308 309 308 308 308 308 309 310 310 309 310 312 314 311 311 312 311 312 312 312 313 312 312 312 312 312 312 312 311 312 314 313 311 313 315 314 312 312 313 318 321 326 323 313 315 319 315 316 314 311 312 312 312 310 311 314 313 312 313 312 311 311 312 313 314 315 314 312 311 311 311 312 311
315 315 317 317 318 318 318 318 316 317 319 315 310 309 309 310 310 309 309 309 308 309 310 311 311 310 313 314 312 312 312 312 314 313 313 313 312 312 312 312 311 312 312 311 312 313 312 313 313 314 314 312 313 319 320 319 326 326 315 315 320 316 314 313 313 314 313 312 310 311 313 313 313 314 313 312 312 312 313 314 314 313 312 310 310 310 310 311
315 316 317 318 318 318 318 318 318 319 319 312 309 310 310 312 312 311 310 309 310 311 310 313 312 309 313 313 312 313 311 311 313 313 314 313 312 312 311 311 310 310 310 310 312 311 310 311 310 313 316 315 316 319 319 317 320 321 316 316 318 315 313 313 315 315 311 311 312 312 311 311 312 312 312 311 312 312 311 311 311 310 310 309 309 309 309 309
315 316 317 317 318 318 317 318 318 319 318 312 309 311 312 313 312 311 311 311 311 311 311 312 311 312 316 314 313 313 311 311 312 312 313 313 312 312 312 311 308 308 311 311 311 310 311 313 314 318 319 315 315 316 317 316 316 317 317 315 315 314 313 312 313 313 312 311 311 312 310 310 310 310 310 309 310 311 310 310 310 309 309 309 309 309 309 309
314 315 316 317 317 317 317 318 318 319 317 313 311 311 313 315 313 312 312 312 313 313 313 314 313 316 318 315 311 311 312 313 313 312 312 312 311 311 311 310 310 312 313 314 313 311 315 317 317 317 316 314 314 313 314 315 314 314 314 312 313 312 311 312 311 310 311 310 309 310 309 309 309 309 310 309 309 310 310 310 309 309 309 309 309 309 309 309
315 315 315 316 316 316 317 317 318 319 317 314 311 310 315 317 316 316 313 313 315 315 316 317 315 317 317 313 312 312 313 312 313 313 311 311 311 312 311 309 313 315 313 319 318 312 313 316 316 316 315 314 313 312 312 312 312 311 311 312 312 311 310 310 310 309 310 309 310 311 310 310 310 309 309 309 309 309 309 309 310 310 309 309 309 310 310 310
319 316 315 315 315 316 317 317 318 319 316 314 310 310 313 312 313 316 313 314 313 309 314 317 312 314 314 312 311 312 313 312 313 312 311 312 311 313 315 312 314 315 315 321 319 310 311 314 316 316 314 313 312 312 311 311 311 311 312 312 312 311 310 310 310 310 309 309 311 312 311 310 310 310 310 310 310 310 310 310 310 310 310 311 311 310 310 311
322 320 318 316 316 316 316 317 318 319 318 315 310 308 308 306 308 309 307 313 313 305 309 312 308 310 311 309 310 311 313 314 314 313 312 311 311 314 316 316 317 318 317 317 315 312 313 314 314 313 312 312 313 311 310 311 312 312 313 312 312 311 311 311 311 311 311 311 314 315 312 310 310 311 310 310 310 310 310 311 311 311 311 311 311 311 311 311
324 322 321 319 318 316 316 317 318 318 318 315 310 307 306 306 307 307 306 313 316 311 312 313 310 310 310 308 309 311 312 313 313 314 312 312 313 316 316 316 317 318 317 315 314 315 317 319 316 310 310 311 312 311 311 313 312 313 313 312 313 311 311 313 312 315 314 310 313 314 311 310 310 310 310 310 310 310 310 310 311 311 311 311 311 312 311 311
325 323 323 322 321 319 317 317 318 319 318 314 312 309 307 307 307 307 310 313 316 316 314 311 309 311 311 309 308 310 312 312 312 312 312 314 316 315 315 317 318 317 315 314 315 314 316 320 316 311 312 312 312 312 312 313 312 313 313 312 313 312 312 312 313 316 314 313 316 313 310 312 314 313 313 312 309 309 310 309 310 311 310 311 311 312 312 311
324 324 324 323 323 321 318 318 318 318 318 315 313 312 308 307 306 307 312 317 321 320 312 307 309 311 310 308 309 311 312 312 313 311 309 312 314 313 313 314 316 318 315 312 314 314 314 315 313 313 314 312 313 313 315 316 313 313 314 314 312 312 312 312 313 313 314 318 317 312 313 316 316 315 318 319 315 314 314 312 313 313 310 310 311 312 311 311
325 325 325 324 324 323 320 320 318 318 319 316 314 313 310 308 307 307 312 321 327 325 314 309 310 310 308 308 309 311 313 314 309 308 309 310 310 311 313 312 311 315 316 314 313 312 314 313 311 313 315 313 313 314 316 315 312 314 317 318 315 313 313 314 313 312 317 320 314 312 316 316 315 315 318 321 319 319 319 316 315 313 310 310 312 312 311 311
324 325 324 324 323 323 322 320 318 319 321 318 316 314 310 309 306 306 313 325 330 324 316 311 309 309 309 308 308 310 315 314 308 308 309 309 309 309 312 312 311 311 312 313 314 314 315 313 311 311 313 315 314 314 315 312 313 316 316 319 320 317 315 314 312 313 317 317 313 314 316 315 315 315 316 317 317 318 317 314 313 310 310 311 311 311 311 311
323 324 324 323 323 323 322 320 318 318 320 318 317 315 311 309 307 310 322 334 332 320 314 312 308 309 309 306 307 310 310 309 309 309 306 306 309 309 312 314 313 313 311 311 315 314 314 314 314 314 314 317 316 316 317 313 314 317 313 315 317 316 315 313 314 316 315 314 315 315 314 317 318 315 316 315 315 318 316 313 313 311 312 312 311 311 310 310
322 323 323 323 322 322 321 320 318 318 318 317 317 317 313 309 307 314 328 332 328 318 313 311 309 310 311 309 310 311 309 308 310 309 306 307 309 308 312 314 314 315 312 312 313 312 312 313 316 318 316 317 316 317 319 316 315 315 312 314 316 318 317 315 315 317 317 317 317 316 315 317 319 317 318 315 315 320 318 314 313 313 315 313 311 311 310 310
322 322 323 322 321 320 319 319 320 319 319 317 318 317 314 313 312 320 331 328 325 321 313 311 311 310 312 312 313 312 310 311 310 309 310 310 309 309 309 309 312 315 314 313 314 311 310 309 311 315 315 315 317 315 314 315 314 312 313 316 318 320 318 317 319 318 317 318 317 318 317 315 318 319 320 319 319 320 318 317 318 319 321 319 314 312 311 312
321 321 322 322 321 321 319 319 321 320 319 318 318 316 317 322 323 328 331 324 322 323 314 312 313 312 313 314 315 314 311 313 311 310 312 310 312 313 310 309 312 316 317 315 315 312 309 308 311 316 315 313 314 312 309 310 310 311 317 318 317 319 317 319 321 317 317 321 319 319 316 314 318 317 316 319 318 315 315 319 323 322 324 325 320 313 312 311
318 320 321 321 321 321 320 320 320 320 320 318 317 318 324 329 326 327 329 324 324 324 316 314 314 315 316 313 316 317 313 314 312 311 315 315 315 314 314 316 317 320 324 322 320 318 315 314 313 314 313 310 311 314 312 310 309 311 317 316 314 319 319 319 321 317 318 320 316 313 312 313 315 314 314 316 315 314 313 316 319 319 320 321 317 312 311 310
315 317 318 319 319 319 320 320 320 319 319 317 319 322 326 328 326 327 329 325 323 321 317 317 315 315 316 316 323 321 313 315 314 311 314 315 314 316 317 318 316 318 323 321 321 322 321 318 312 309 312 312 312 314 315 316 313 311 314 316 317 319 319 320 321 318 319 319 313 310 313 315 315 316 318 315 313 314 314 314 316 315 314 314 313 312 311 309
313 314 315 316 317 318 319 319 320 319 317 317 321 324 326 327 326 327 329 327 325 324 321 320 318 317 317 320 328 323 317 322 318 311 314 313 313 320 321 317 312 314 316 315 318 320 320 323 319 315 315 314 311 312 319 322 316 311 314 318 318 320 323 323 324 321 320 319 312 308 313 320 319 318 319 317 316 318 317 315 315 313 311 312 313 315 314 312
311 311 312 313 315 317 318 318 319 318 317 318 321 324 326 327 325 325 328 328 329 329 322 319 320 322 321 322 325 321 319 325 320 313 316 316 318 325 326 321 315 314 315 316 319 318 317 322 323 316 313 311 311 314 318 321 317 312 314 317 315 319 325 323 322 321 319 318 314 311 316 321 318 314 315 315 315 315 314 313 312 313 311 312 317 319 317 317
308 309 310 311 313 316 317 318 318 317 317 319 322 325 324 324 326 327 326 323 325 327 323 321 322 323 326 325 324 319 315 318 318 314 316 317 320 323 323 325 320 313 313 318 322 320 317 321 320 312 310 311 313 314 313 316 318 314 313 315 314 317 321 319 319 319 315 315 316 315 318 318 317 317 316 316 316 315 316 315 313 315 315 316 320 321 319 320
305 306 308 310 312 314 316 317 318 316 317 319 322 325 324 323 325 327 326 320 320 323 323 324 323 325 329 328 325 319 314 316 316 315 319 318 318 320 320 321 319 312 312 316 320 321 320 321 319 315 315 313 309 311 312 313 314 314 316 316 312 313 316 316 318 319 316 316 317 317 318 317 318 320 317 318 320 319 318 318 316 319 320 319 319 318 317 319
302 305 308 310 310 312 315 317 317 315 316 319 322 324 323 322 322 324 324 320 318 320 321 324 324 325 328 327 325 322 317 319 318 316 321 320 318 321 320 318 316 312 310 310 316 321 319 318 319 318 317 313 307 310 315 311 308 312 316 314 313 316 316 316 318 318 317 318 319 319 318 316 317 318 316 316 317 317 319 318 316 317 318 317 315 313 312 314
302 307 311 311 310 311 313 316 316 315 318 321 323 323 322 322 322 324 324 320 318 321 321 324 324 323 326 324 324 324 320 320 319 317 319 321 319 319 317 316 315 311 310 309 314 319 317 318 321 316 313 314 312 313 318 315 310 309 311 311 313 315 315 315 318 319 318 318 320 321 319 318 317 316 315 314 315 318 318 315 314 315 315 315 314 313 312 313
305 311 313 312 311 312 313 315 315 316 320 321 321 322 321 321 322 323 323 319 318 321 321 324 324 322 324 322 321 324 322 322 322 319 320 322 322 320 318 316 314 314 313 310 311 315 316 318 320 318 316 316 315 317 320 320 316 313 312 313 312 312 315 316 316 317 318 318 319 321 320 320 320 318 317 314 315 318 315 311 313 315 314 314 314 314 313 312
307 312 313 311 312 314 314 315 316 317 319 320 320 319 319 319 320 320 320 317 317 320 319 322 324 321 321 322 321 322 322 323 324 322 322 324 323 322 320 317 315 318 317 313 312 316 317 318 320 322 321 317 317 321 322 322 321 317 316 315 314 313 316 318 317 317 317 316 318 320 319 321 322 324 321 315 314 317 314 313 313 312 311 313 314 312 308 304
308 312 312 312 313 314 315 317 317 317 318 319 319 318 318 319 319 319 319 317 316 318 317 318 321 320 319 319 320 320 321 323 323 322 322 322 321 320 319 320 320 321 321 320 320 320 318 318 319 320 321 319 319 320 319 318 318 317 316 315 315 314 314 317 319 318 317 316 316 317 318 321 322 321 319 316 314 314 313 314 314 312 309 307 306 304 300 298
308 311 310 311 314 314 316 318 318 317 318 318 318 318 318 319 319 318 317 317 317 317 317 318 318 318 319 319 318 319 320 321 321 321 321 320 319 319 319 319 319 318 319 320 321 318 315 316 317 318 319 319 319 318 316 313 314 316 317 316 314 314 314 316 316 316 317 317 317 319 319 321 324 323 318 316 316 314 314 313 310 307 304 300 299 298 297 297
305 306 307 310 313 314 316 318 318 318 318 317 317 317 316 317 317 317 316 317 318 318 317 318 317 318 319 318 318 319 319 319 318 318 319 319 318 316 315 315 315 315 316 316 317 317 315 316 318 318 319 318 318 318 315 313 314 316 317 316 315 314 315 315 315 315 317 316 316 319 318 319 326 327 320 318 317 315 313 308 302 300 299 298 297 297 296 296
303 305 306 306 308 311 314 316 316 317 317 316 317 317 316 317 317 316 316 315 317 317 317 317 316 316 316 316 316 316 316 317 317 317 318 318 318 314 311 313 314 313 313 311 312 315 315 315 317 318 319 318 317 316 314 315 316 314 314 315 314 315 315 315 315 316 317 317 317 318 317 317 321 322 318 318 316 312 308 302 298 298 297 297 296 296 296 295
303 305 305 306 307 308 311 312 313 315 316 315 316 316 316 317 316 315 315 315 315 315 316 315 314 314 314 314 315 315 315 316 315 316 317 317 318 314 309 310 312 311 311 310 309 312 313 313 315 316 316 316 316 315 314 315 316 314 314 314 314 314 313 312 313 315 316 316 316 316 316 316 315 315 315 314 310 306 302 298 298 297 296 296 295 295 295 294
302 304 305 308 309 308 308 310 311 313 314 314 315 314 314 315 314 314 314 315 315 314 314 314 314 314 315 315 315 314 315 315 314 315 315 314 315 312 307 308 309 308 309 309 308 311 312 312 313 314 314 315 315 314 314 314 314 314 314 314 314 314 313 312 313 313 313 315 315 315 315 314 314 314 313 308 304 302 299 297 296 296 295 295 294 294 294 294
300 302 303 304 306 306 306 307 307 308 310 312 312 313 313 312 312 313 313 313 313 314 314 313 313 314 314 314 313 313 313 314 313 313 312 310 310 310 309 309 307 304 305 305 306 310 310 310 311 312 312 313 312 312 312 312 312 312 312 312 312 312 312 313 313 313 313 314 314 314 313 314 314 311 307 302 300 299 298 295 295 294 294 294 294 293 293 293
298 299 299 300 301 301 302 301 302 303 306 308 310 311 311 310 310 310 311 311 311 312 313 313 313 313 312 311 311 312 312 312 311 311 309 307 307 307 308 308 305 303 301 301 303 308 308 308 310 310 309 309 309 309 309 309 309 309 309 310 310 311 311 311 311 311 312 312 313 312 313 313 309 304 301 298 297 298 297 295 294 293 293 293 293 293 292 293
297 298 298 298 298 298 298 299 300 302 303 305 308 309 309 310 309 308 309 310 309 311 312 312 311 309 307 308 309 310 310 309 309 309 305 304 305 305 304 305 304 301 300 299 302 306 308 308 308 307 306 305 305 306 307 307 307 306 307 308 309 309 310 309 309 310 310 311 311 310 312 310 302 298 297 296 295 295 295 295 293 292 292 292 291 292 292 292
295 296 297 296 296 297 298 298 299 300 302 303 306 307 309 309 306 305 307 307 305 308 309 306 305 304 303 304 306 306 305 303 303 303 302 301 303 303 301 301 301 299 299 300 302 304 305 304 304 303 303 303 303 304 304 304 304 305 305 307 307 307 308 307 308 309 309 309 309 309 310 306 299 295 294 293 293 293 293 294 294 292 292 291 290 291 291 291
293 294 296 296 295 296 297 297 298 300 301 301 303 304 305 304 300 301 306 303 299 300 301 299 299 300 301 302 303 302 300 299 298 298 298 299 299 299 298 299 298 298 298 299 300 300 300 301 301 301 302 302 301 301 302 302 302 301 301 304 305 305 305 306 307 306 303 302 305 306 304 299 296 294 293 292 292 292 292 293 294 293 292 291 290 290 290 291
Wind_Speed
9 10 10 10 10 10 11 11 11 11 11 11 12 12 12 12 12 12 13 13 13 14 14 15 15 16 16 13 11 11 12 11 10 7 7 8 8 8 10 8 6 8 11 9 7 8 5 3 4 4 4 3 3 1 1 2 2 3 3 2 3 3 4 6 7 7 4 4 6 4 1 1 8 5 2 2 1 5 5 4 5 6 8 9 8 6 4 5
10 10 10 10 10 11 11 11 11 11 11 11 11 11 11 12 12 12 13 13 13 14 14 15 15 16 17 15 12 12 13 12 9 8 6 4 3 7 9 10 8 8 11 10 9 10 6 2 5 6 4 2 2 2 1 1 2 2 3 2 4 6 5 6 8 6 4 4 6 6 3 3 7 4 1 3 7 6 7 7 4 8 12 12 11 8 6 11
10 10 10 10 10 11 12 12 12 12 11 11 10 11 11 11 12 12 13 13 13 14 14 15 15 16 17 15 12 13 14 10 6 4 1 5 3 4 7 10 9 8 11 9 8 10 5 4 9 7 4 1 1 2 1 0 2 2 3 2 6 7 6 5 7 7 7 4 5 8 4 2 6 3 0 3 8 10 10 8 5 9 13 13 10 8 10 14
10 10 10 10 10 10 11 11 12 12 12 12 11 11 10 11 11 11 12 12 13 13 14 14 15 16 16 14 11 12 12 6 2 2 2 3 5 4 5 10 10 9 12 8 4 7 3 4 9 5 4 0 3 2 0 3 2 1 4 5 7 4 4 7 8 9 8 3 5 6 5 6 6 2 2 2 6 12 11 8 10 13 13 12 9 8 11 13
12 11 10 10 10 10 11 11 12 12 12 12 11 11 11 11 10 11 11 11 12 12 13 13 13 14 14 12 9 10 9 5 2 1 0 5 7 6 4 8 11 9 12 9 3 5 3 6 6 5 3 1 2 2 2 4 3 2 5 7 6 4 4 7 7 8 6 3 4 4 6 7 4 1 5 5 5 12 10 6 12 13 11 11 8 7 9 10
13 12 11 10 11 11 10 10 11 11 11 11 11 11 11 11 10 11 11 11 11 11 12 11 12 12 12 10 7 6 5 1 5 3 6 9 8 7 3 6 11 10 12 9 4 6 5 5 4 2 2 0 2 4 4 2 3 3 5 5 6 6 7 5 4 5 5 3 4 4 6 4 4 8 5 9 11 18 14 6 9 10 10 9 5 7 8 10
14 13 11 11 11 11 10 10 10 10 11 11 11 11 11 11 11 12 11 12 12 11 12 11 11 10 10 8 5 3 4 5 12 9 11 11 8 6 3 6 9 11 13 9 5 6 5 5 2 4 3 1 3 5 4 1 1 3 5 5 6 7 9 8 3 3 4 6 8 3 6 8 8 8 2 7 14 20 18 10 9 10 9 8 5 8 10 12
13 12 11 11 11 10 10 11 11 11 11 11 11 11 11 11 11 11 12 13 12 12 12 12 11 10 9 4 1 3 1 9 16 13 12 9 7 5 4 6 10 12 13 11 8 7 5 5 5 3 2 3 4 4 3 1 0 5 8 5 3 4 7 8 5 5 7 8 7 2 9 16 12 5 8 13 17 20 17 12 10 9 9 8 10 11 11 11
12 12 11 11 10 10 10 11 11 11 12 12 12 11 12 12 11 11 11 13 13 12 12 12 11 9 7 2 3 2 5 10 11 9 8 8 8 6 5 7 11 14 13 11 10 9 6 5 5 4 4 3 4 4 3 2 4 7 8 6 4 6 8 7 6 7 8 6 4 3 12 18 8 2 11 17 19 18 12 11 9 6 8 9 10 12 10 11
11 11 11 11 10 11 11 12 12 12 13 13 13 13 13 13 12 12 12 13 13 12 12 11 10 8 5 1 2 4 8 7 7 8 9 10 9 7 7 8 11 15 13 10 11 12 7 7 6 5 5 2 3 3 2 4 4 4 4 6 7 9 9 4 6 8 5 5 7 8 14 16 4 2 9 14 12 8 6 10 8 4 9 10 9 10 10 11
11 11 10 10 10 11 12 12 13 14 14 14 14 14 14 15 14 14 13 14 13 12 12 11 9 7 4 2 3 7 7 6 8 10 11 12 10 9 9 10 12 15 13 9 12 15 11 9 8 5 3 2 3 2 3 5 2 1 1 8 9 8 10 5 6 8 4 4 8 11 12 12 4 1 13 19 8 1 5 12 10 7 10 10 9 10 8 10
10 10 9 10 11 12 12 13 14 15 15 15 15 15 15 15 15 15 15 15 14 12 11 10 8 6 2 1 6 13 14 12 12 12 13 13 11 9 9 11 12 13 13 8 8 14 14 10 8 6 4 3 1 1 4 3 0 2 3 6 11 8 11 8 5 5 6 4 6 9 5 8 5 9 19 20 7 3 6 11 12 11 11 10 9 8 7 9
9 9 9 10 11 12 13 14 15 15 15 16 16 16 16 16 16 16 16 16 15 12 10 9 7 5 1 2 7 13 18 18 17 17 16 15 11 9 9 10 10 10 12 10 6 7 11 12 10 7 4 4 3 2 1 2 2 4 2 1 8 8 9 5 2 2 2 5 7 7 3 7 9 15 20 15 5 5 8 10 12 10 10 11 9 7 8 9
9 9 9 10 10 12 14 16 16 15 16 18 18 17 17 17 17 17 16 16 15 11 8 5 4 3 3 6 8 8 14 17 18 19 19 17 11 6 5 7 8 9 9 9 6 3 7 11 8 3 1 3 3 2 2 5 3 4 2 1 3 3 7 4 3 1 3 3 7 6 5 8 11 16 19 11 2 5 8 10 11 10 9 9 9 8 9 9
9 9 9 9 10 12 14 17 17 16 19 21 19 18 18 17 18 17 16 14 12 9 6 3 5 5 2 8 10 8 11 13 15 18 18 17 12 5 4 6 6 7 7 6 6 4 7 9 6 2 2 1 1 2 4 4 3 3 2 4 2 3 7 9 5 5 7 4 4 6 5 7 12 16 16 9 3 4 7 10 10 12 11 9 10 9 10 11
8 8 8 8 10 12 14 18 17 17 21 21 19 18 16 15 14 13 11 9 7 6 3 4 8 6 1 5 6 7 9 9 11 12 12 14 12 7 7 9 6 7 7 5 6 6 7 6 2 1 1 2 1 1 3 4 4 3 2 5 6 5 5 8 8 6 9 3 1 8 6 5 8 13 13 7 5 4 5 10 11 13 13 11 10 8 9 12
8 8 8 9 10 12 15 18 18 19 22 21 20 17 12 10 9 7 4 1 3 6 6 4 8 5 2 5 5 7 6 7 8 6 7 10 9 9 10 8 5 7 7 4 6 5 3 2 1 1 2 1 2 3 2 2 4 4 2 4 6 6 6 5 8 6 3 5 5 7 8 10 11 12 14 11 8 8 9 13 13 13 14 13 11 10 11 12
8 8 9 10 11 13 15 18 19 20 22 21 21 14 6 6 8 6 7 11 11 9 5 3 5 2 5 6 5 4 0 2 4 2 4 6 8 10 9 6 6 8 7 4 2 2 1 2 2 1 2 1 1 4 3 6 7 7 6 6 4 4 6 6 8 6 3 4 5 4 9 14 15 13 15 17 11 9 16 17 14 13 15 15 13 12 13 14
9 9 10 10 12 14 16 18 19 21 21 21 18 7 2 5 6 8 8 9 7 4 1 2 4 2 4 6 5 3 1 2 2 3 6 9 10 10 9 7 7 7 5 1 1 2 1 3 3 2 3 7 8 8 11 13 11 9 7 5 6 7 7 8 12 8 4 8 8 9 16 16 15 14 14 18 13 10 16 17 15 14 13 13 13 14 14 16
9 10 10 11 12 14 16 17 19 20 20 21 17 4 2 5 3 3 3 0 3 4 2 5 8 4 5 5 2 0 1 2 2 3 7 11 13 11 6 4 6 5 3 4 3 2 3 3 3 5 10 13 12 11 13 13 6 4 4 5 7 9 10 10 13 11 1 5 9 11 19 18 14 15 12 15 16 13 15 17 18 17 13 12 13 17 17 17
11 10 11 12 12 13 15 16 18 19 17 18 16 5 2 2 2 3 4 5 9 10 8 10 10 8 12 6 1 2 1 1 2 4 7 10 12 9 1 2 5 1 2 4 3 1 3 5 7 12 15 10 6 7 9 8 5 5 5 7 8 7 12 12 12 13 2 1 7 8 16 20 15 15 12 12 15 17 19 16 17 21 17 12 13 19 19 16
13 12 12 13 13 13 14 15 17 17 16 16 14 7 3 1 0 1 1 4 10 9 9 11 7 9 15 10 3 1 2 2 2 1 7 9 5 4 1 4 5 4 3 3 1 0 1 6 12 16 11 3 2 2 3 4 5 7 4 6 8 4 10 12 9 11 4 1 7 8 15 18 12 14 15 15 17 18 19 13 13 19 19 16 16 17 15 15
13 13 13 13 14 14 13 15 15 14 15 14 11 6 1 1 1 1 1 2 7 5 5 8 5 6 10 9 5 4 2 6 4 4 10 10 2 3 5 5 5 4 3 6 6 5 4 7 13 14 7 4 6 1 2 3 4 6 5 5 8 5 6 8 4 6 5 3 7 10 16 15 10 14 15 17 19 16 16 14 12 15 19 21 18 12 11 14
12 13 13 14 15 15 13 15 12 11 14 10 8 6 3 1 2 2 0 2 4 6 5 5 4 4 5 5 4 7 4 5 3 4 11 12 4 3 5 5 6 4 6 10 10 10 9 7 5 4 5 8 9 5 3 6 6 7 7 6 10 11 10 10 6 7 7 5 5 7 14 12 7 10 10 10 10 9 12 13 13 16 20 19 13 11 13 14
13 13 13 14 15 15 15 14 8 9 13 6 5 8 6 2 2 2 1 1 3 6 4 2 2 2 4 2 4 6 3 2 3 3 7 10 6 3 2 3 4 5 8 8 8 9 10 6 3 3 4 6 6 6 6 7 8 7 6 11 15 15 12 12 9 7 6 5 4 5 8 10 2 5 7 6 3 6 8 10 16 19 17 11 8 11 15 13
13 13 13 14 14 14 13 9 5 8 10 3 4 9 7 3 3 1 1 3 4 5 1 1 1 1 2 2 1 3 3 2 3 2 2 3 3 4 2 1 1 4 7 5 3 4 5 4 3 5 5 6 5 6 7 9 6 8 5 11 14 11 9 10 8 4 2 4 3 4 1 10 5 3 8 8 3 8 10 10 17 17 10 6 7 11 13 12
15 14 13 13 13 12 8 4 5 8 5 2 6 9 7 5 3 2 1 3 5 2 2 1 1 1 2 0 1 3 2 3 3 3 2 0 2 1 1 3 1 2 4 3 2 3 4 2 1 2 4 6 5 5 7 11 5 6 5 6 8 8 8 6 4 4 4 4 3 2 4 7 11 5 6 7 6 9 13 14 16 11 8 9 10 12 13 11
18 16 13 12 11 10 8 6 6 5 2 4 7 8 8 6 3 1 3 2 4 1 3 1 1 2 0 1 3 3 1 3 2 1 2 2 1 2 0 6 5 4 3 4 4 4 4 5 5 6 5 4 6 5 8 12 6 6 4 5 5 5 5 5 5 4 1 4 4 3 5 2 12 7 1 1 5 8 13 15 13 8 8 11 12 13 13 9
18 17 15 11 9 10 10 8 7 5 5 5 6 8 9 6 3 3 3 2 2 1 1 0 2 0 2 2 3 2 0 1 1 2 3 1 1 3 1 6 6 4 4 4 7 6 1 4 7 8 5 6 8 5 9 13 7 4 6 5 4 4 2 4 4 3 3 4 5 5 5 2 11 7 4 4 2 7 10 11 10 7 7 10 11 12 11 9
15 16 16 12 8 9 7 8 10 9 8 6 6 9 8 4 1 3 3 4 1 1 1 1 1 0 3 4 3 2 1 2 0 1 3 1 2 4 1 3 5 2 3 2 6 7 3 1 2 4 4 5 5 3 4 9 6 3 6 4 5 4 4 4 1 3 3 6 6 9 11 6 7 5 4 3 4 6 6 7 8 7 5 8 9 9 8 7
10 12 15 14 12 10 4 4 9 10 10 8 6 7 5 3 3 3 7 3 1 2 1 1 1 1 4 3 1 2 1 2 0 2 1 1 2 4 1 1 3 2 3 4 6 6 2 1 2 4 3 3 5 2 2 1 4 4 4 4 3 4 4 5 4 3 2 7 6 10 12 9 7 5 1 4 6 6 6 5 8 9 7 8 8 7 7 6
8 8 11 13 14 14 8 3 3 5 8 7 3 3 2 2 1 6 5 3 2 2 1 1 1 1 3 2 2 3 2 1 1 3 3 2 2 2 2 4 3 1 4 2 3 5 2 5 4 3 2 5 5 1 3 3 4 4 3 3 1 3 3 3 3 1 4 8 4 6 7 5 11 8 3 9 13 9 8 7 8 9 8 9 9 9 10 8
8 8 8 9 12 15 14 9 4 2 7 7 1 3 4 2 6 4 2 2 2 1 1 1 1 2 3 1 2 4 2 2 3 3 2 3 2 3 5 5 5 2 4 2 2 4 4 4 3 2 3 4 8 5 3 2 4 5 5 5 3 2 1 3 3 2 5 6 3 3 4 3 9 7 6 12 13 9 5 8 8 8 8 9 8 9 10 9
8 9 9 9 11 14 15 14 11 6 8 9 3 3 2 8 7 2 2 5 3 2 1 2 3 1 2 2 4 3 2 3 4 4 2 3 1 3 4 5 5 3 2 1 2 2 4 7 4 6 3 5 10 8 5 5 5 6 6 5 4 5 4 4 4 4 6 4 2 1 4 4 5 3 6 10 8 7 6 6 6 6 7 6 7 8 9 8
9 9 10 10 11 13 15 16 14 10 9 7 3 2 5 9 5 0 3 4 2 3 3 1 2 1 3 3 4 3 4 5 2 4 3 3 3 4 3 4 6 5 3 2 2 2 4 8 6 3 1 7 9 5 4 7 2 3 3 4 3 5 5 3 6 6 4 2 2 2 4 5 5 6 7 6 7 8 8 6 6 7 6 4 6 7 6 7
10 10 10 11 13 14 15 17 15 13 10 5 2 6 8 7 4 3 4 2 2 2 1 2 2 2 5 3 3 3 3 3 0 1 3 3 4 5 4 4 6 9 7 4 3 2 3 6 3 1 1 6 7 3 3 3 2 1 3 3 3 3 5 2 6 4 2 4 6 6 7 5 4 10 8 3 4 6 7 7 5 7 5 3 4 5 6 7
10 9 8 10 14 14 14 17 17 15 8 3 5 8 6 4 5 5 3 2 2 3 2 3 4 3 4 3 3 2 0 1 1 2 2 2 3 4 4 4 5 11 12 7 4 4 4 6 5 4 4 5 3 2 1 1 2 5 3 4 2 1 3 2 2 1 3 8 7 7 12 9 4 8 7 7 8 9 8 7 6 7 5 5 5 6 6 6
6 5 7 12 17 16 14 17 19 14 5 2 8 11 5 3 4 4 3 3 1 1 2 4 4 2 3 3 3 2 3 3 1 2 2 2 3 4 5 3 4 7 9 6 3 3 2 5 7 3 4 3 3 3 2 3 1 4 4 3 2 2 2 1 2 2 6 9 5 5 11 9 6 9 9 11 13 9 7 7 7 7 6 5 7 8 9 8
2 1 4 8 12 17 18 18 17 9 2 4 10 10 5 4 4 3 4 3 1 1 2 5 4 2 3 3 3 2 3 4 2 2 3 3 4 3 4 2 2 1 3 4 3 2 1 3 5 1 1 1 3 1 3 1 2 1 1 2 1 3 3 2 2 2 4 8 7 5 7 6 7 8 11 16 12 5 5 6 7 8 7 7 8 9 11 11
3 1 3 2 2 14 20 18 12 5 3 6 9 7 2 3 4 3 3 3 2 2 3 4 4 4 5 4 3 3 2 3 3 3 3 2 4 3 2 3 2 1 0 3 4 1 2 3 5 2 2 1 1 3 5 4 2 2 0 2 2 2 1 2 2 1 2 5 5 6 7 6 5 5 10 15 8 6 6 4 6 8 8 8 9 9 10 10
1 1 3 2 3 17 20 12 5 4 5 6 8 8 5 3 3 2 2 2 3 2 1 3 5 4 4 4 4 2 1 3 4 4 4 4 4 4 2 2 4 2 2 2 3 3 1 3 4 3 3 3 5 5 6 7 6 5 4 5 5 4 2 4 5 3 3 4 5 7 8 6 4 4 8 11 7 5 5 4 7 7 6 7 9 9 9 10
2 2 1 3 9 21 15 4 4 3 4 5 5 5 4 2 2 2 2 1 2 2 2 3 5 5 4 5 5 3 2 4 4 4 5 5 6 7 3 3 5 4 3 2 4 3 3 1 3 5 6 7 11 10 6 7 4 2 3 4 4 4 4 6 8 5 4 6 6 8 9 5 4 6 9 12 11 9 7 7 8 8 7 7 8 11 12 12
2 2 4 2 16 23 9 3 5 4 4 3 2 3 2 1 2 3 2 1 2 2 2 2 3 5 6 6 6 5 4 5 6 7 6 5 7 6 1 4 4 3 2 1 4 1 2 2 2 6 6 6 10 11 4 2 3 0 3 3 3 5 6 8 8 4 5 7 7 8 9 4 4 7 9 9 10 12 11 9 10 10 10 12 12 12 12 12
1 2 3 2 14 16 6 4 7 6 6 4 5 6 4 2 4 6 5 3 2 3 3 3 3 5 5 4 5 5 5 5 6 8 6 4 6 3 6 7 3 1 1 2 2 2 1 2 2 3 4 5 6 7 5 2 1 2 4 5 5 7 10 10 6 5 6 8 10 11 9 5 2 4 6 7 8 10 10 12 14 12 11 11 11 11 11 11
2 1 2 4 7 6 3 4 4 5 6 7 8 8 6 4 4 6 6 4 3 3 2 3 2 2 3 3 3 4 5 5 5 5 2 2 4 3 7 8 5 2 1 1 1 2 2 2 4 4 6 7 7 7 5 1 1 2 2 4 5 6 9 8 6 6 7 8 11 11 9 7 5 4 6 7 8 9 10 14 13 11 11 11 10 10 10 11
1 1 1 3 3 2 2 2 1 3 5 6 7 6 9 9 4 2 4 4 5 5 4 5 3 2 2 4 5 6 7 7 6 4 3 3 3 1 3 4 5 3 1 4 4 1 1 2 5 9 11 10 10 10 6 5 5 6 6 7 7 6 7 5 4 6 8 8 10 11 11 12 8 6 7 7 9 9 10 11 11 10 11 11 10 10 10 11
1 1 1 1 2 2 3 3 1 2 2 4 4 3 8 11 8 3 4 4 4 4 4 6 6 6 5 5 7 8 7 8 8 6 6 5 3 3 3 2 4 5 3 3 4 2 1 2 5 10 13 12 12 13 11 10 11 10 11 11 11 11 10 9 10 11 10 9 9 8 11 13 11 9 8 9 9 8 8 9 9 8 9 9 9 11 13 13
0 0 1 1 1 2 3 2 2 3 3 4 2 1 5 8 7 4 2 2 1 1 3 3 5 9 10 7 5 4 4 6 6 3 2 2 2 4 5 2 2 5 6 3 4 2 1 4 6 11 14 11 10 12 10 9 10 9 9 11 12 14 14 15 16 15 11 10 11 11 14 16 13 8 6 8 8 7 8 8 6 6 7 8 8 10 12 12
1 0 2 2 1 1 2 2 4 4 4 4 2 3 7 10 11 8 2 1 2 2 4 6 6 7 7 6 5 4 4 6 6 2 1 1 2 1 3 3 1 3 6 4 3 0 2 4 4 8 10 8 9 11 10 10 10 10 10 11 12 14 17 18 16 14 14 16 17 16 18 17 8 4 5 7 7 5 4 4 4 6 6 7 9 9 9 10
1 0 1 2 1 1 2 2 3 3 3 4 4 5 8 11 13 10 4 3 7 5 5 7 7 4 3 4 5 5 4 3 5 4 3 2 1 1 1 2 1 3 5 4 2 2 3 4 5 6 7 9 12 12 12 11 11 12 13 12 14 17 18 17 15 14 15 17 16 16 17 11 3 5 4 5 6 5 4 3 4 5 5 6 8 8 8 9
0 1 0 1 2 2 1 1 1 1 3 4 5 5 6 6 6 6 3 1 3 3 2 1 2 1 1 2 2 3 1 4 1 2 1 2 2 1 1 2 2 5 6 2 1 3 3 3 5 6 6 10 12 12 12 11 10 12 14 15 18 18 15 14 13 11 10 10 11 12 11 4 4 4 4 5 7 7 7 4 2 2 3 5 7 8 8 8
1 1 0 1 2 2 1 1 0 1 2 3 2 2 3 2 3 4 3 2 5 4 4 5 4 3 2 3 2 0 2 3 2 2 2 4 5 4 4 5 5 4 4 4 2 2 3 3 4 5 6 8 11 11 8 8 9 11 11 12 15 15 14 16 12 5 2 2 4 6 3 2 3 4 5 7 7 8 8 6 3 2 4 5 7 8 8 7
Wind_Direction
351 356 356 357 357 353 350 352 353 353 355 352 352 351 348 348 346 347 346 346 347 346 347 347 350 352 354 357 348 338 328 314 302 284 259 277 285 268 265 262 249 215 209 211 196 173 141 122 139 123 116 83 14 14 25 9 87 68 89 131 228 201 202 192 191 201 194 260 273 292 40 265 294 297 290 337 274 262 259 251 273 280 256 242 252 277 287 185
346 350 351 351 349 347 344 345 347 347 349 348 348 345 343 344 342 344 342 342 343 342 343 344 347 348 352 356 350 344 333 319 308 281 276 316 294 256 254 247 241 221 206 207 207 183 146 174 164 107 76 64 352 11 7 320 110 110 120 170 231 204 213 199 189 199 206 244 269 283 291 236 257 274 355 291 277 284 277 270 280 277 269 262 255 247 221 183
344 346 347 346 343 341 338 339 339 340 342 342 342 339 337 337 337 338 337 338 339 339 339 340 344 345 350 353 353 349 334 326 316 278 312 43 30 264 246 233 231 222 209 212 220 200 184 195 162 113 54 49 336 15 29 3 184 174 131 212 244 218 231 235 209 211 223 252 294 287 287 230 247 250 105 264 282 284 266 257 251 256 258 258 247 213 196 187
342 344 345 342 338 334 332 332 331 332 333 334 334 334 331 330 330 330 330 331 332 334 332 334 338 340 346 350 355 349 340 342 306 229 121 25 7 345 257 226 219 219 211 213 221 208 213 146 142 96 67 122 323 9 178 224 205 177 153 211 237 199 236 241 217 225 235 240 252 274 324 296 265 195 200 242 299 288 264 229 223 235 243 247 244 209 191 190
339 342 345 339 334 329 327 326 325 324 324 326 326 325 325 323 322 320 320 320 322 324 323 326 328 331 338 345 352 351 2 14 292 215 298 326 338 334 296 220 213 214 205 206 193 168 146 117 107 58 77 179 323 38 247 223 141 170 211 231 231 171 239 240 204 225 224 191 234 278 306 288 284 218 209 192 232 267 264 210 214 226 233 240 233 203 191 198
336 339 341 336 334 330 328 325 321 319 318 319 317 317 318 316 315 313 310 309 310 310 310 312 315 319 324 333 341 350 39 315 272 276 300 311 315 315 307 215 207 206 201 201 171 148 129 92 85 89 102 9 203 197 254 235 130 240 249 256 244 203 233 247 189 213 187 177 246 256 287 299 314 288 219 179 220 253 260 229 221 229 228 235 209 172 190 206
333 334 337 338 339 335 334 330 322 319 317 315 313 313 312 312 312 309 307 304 304 304 304 304 306 307 311 323 326 359 90 242 273 284 295 303 301 301 285 213 199 201 201 191 155 139 111 95 150 155 112 323 217 213 248 246 121 245 260 264 254 222 231 250 242 233 212 240 252 262 316 293 269 285 255 196 233 254 263 256 243 248 238 231 209 194 206 210
331 333 337 342 342 339 338 332 327 324 322 320 316 314 311 310 309 307 306 303 302 304 303 303 304 307 311 315 326 358 88 255 276 281 284 292 289 281 241 206 193 199 198 195 178 149 130 143 188 158 122 255 199 194 218 175 190 224 239 250 260 244 244 262 268 259 259 256 255 281 288 271 252 260 281 258 255 260 265 269 258 256 253 236 231 229 220 218
333 333 339 344 342 340 338 333 331 328 326 324 319 318 314 312 309 306 304 300 301 303 303 305 306 306 304 324 83 339 264 265 279 269 273 285 277 256 225 208 199 198 191 200 191 164 165 183 205 188 200 232 172 195 198 189 243 221 228 255 281 279 273 282 278 252 254 251 205 219 263 268 267 257 269 256 253 265 270 272 269 254 254 242 237 238 228 225
333 336 340 341 343 341 340 337 334 331 327 323 319 318 314 312 309 305 302 297 298 301 303 303 304 300 284 265 79 279 267 271 264 251 271 278 264 243 227 220 209 202 190 189 186 174 175 191 192 172 181 185 166 207 169 173 222 205 222 274 265 271 280 260 260 253 247 253 191 195 252 265 300 53 267 253 239 266 287 275 273 241 250 247 240 240 233 230
334 338 339 340 346 346 346 343 338 333 327 323 321 318 314 311 307 302 297 292 292 297 299 299 303 298 269 164 183 253 265 262 254 258 269 269 259 248 241 233 220 207 193 178 192 197 194 191 166 136 178 196 180 216 220 203 221 234 312 302 279 288 293 232 238 256 220 256 199 187 248 276 328 151 250 260 255 348 296 283 285 267 263 257 244 241 232 233
333 336 341 346 351 352 353 348 341 336 331 329 324 319 314 308 304 300 293 287 286 288 287 291 295 282 269 164 223 248 260 259 260 265 265 262 256 246 239 231 224 215 203 191 205 209 209 204 162 161 212 178 184 263 235 219 160 309 45 317 294 323 308 261 243 250 178 221 189 164 262 287 263 233 249 261 271 330 288 281 285 278 276 272 255 246 235 238
336 341 348 353 356 358 358 352 345 340 339 337 329 321 313 307 303 295 288 282 279 280 280 283 280 255 235 266 245 252 260 259 259 261 260 257 251 243 232 221 218 216 214 211 212 207 212 212 180 181 203 156 236 240 142 51 30 303 55 321 301 333 309 274 130 50 154 203 172 153 267 263 243 250 259 266 263 283 284 275 277 277 277 280 276 262 251 246
338 343 348 354 358 359 359 355 349 346 347 342 332 324 315 309 300 289 283 278 273 275 273 268 249 180 149 257 266 271 263 259 257 254 253 251 238 228 220 207 206 204 210 212 206 187 199 204 176 152 219 166 243 288 355 5 8 309 303 239 312 306 287 282 135 73 301 240 156 162 249 252 258 260 262 277 276 245 267 273 276 276 272 277 280 275 270 258
335 339 342 349 354 356 357 355 351 350 349 343 335 327 319 309 300 292 285 275 271 269 257 221 183 144 85 275 272 278 267 261 258 254 253 247 227 205 192 182 184 184 189 191 186 178 170 173 153 136 259 269 351 328 325 340 5 0 291 289 300 211 269 296 273 210 241 277 129 172 236 255 262 264 264 292 327 228 249 268 271 274 272 269 274 275 276 275
332 334 335 342 347 352 354 352 352 350 349 346 339 332 322 314 311 305 291 278 266 238 196 175 169 142 39 274 280 284 265 253 255 258 250 238 226 203 162 151 147 151 163 166 164 163 144 132 119 154 223 303 202 143 10 354 333 337 211 258 265 241 274 309 295 231 201 221 189 210 238 263 259 267 274 295 308 261 246 264 267 271 274 269 268 269 271 279
329 328 332 338 342 348 351 352 353 351 352 350 341 337 332 330 340 338 323 94 134 148 124 141 156 137 267 261 286 283 255 238 244 251 235 224 212 184 152 126 113 124 121 115 138 140 106 89 36 341 40 347 153 108 26 298 277 288 233 238 250 251 271 304 298 290 165 172 222 237 242 252 259 275 287 288 290 291 274 267 265 267 274 272 269 266 263 265
323 323 330 332 338 345 349 352 354 352 354 353 344 341 355 14 30 52 96 110 107 106 88 96 130 121 267 255 266 269 170 200 217 201 193 179 171 168 148 120 115 113 90 58 106 130 1 22 72 16 350 305 159 127 206 234 226 239 245 257 284 268 254 262 269 292 345 232 232 272 258 254 264 273 282 280 275 278 276 273 269 264 266 269 270 265 260 259
315 318 323 328 336 341 345 351 354 353 355 356 352 344 37 35 63 85 98 107 102 111 129 199 161 148 257 258 266 291 55 124 130 123 136 139 149 144 119 109 106 103 98 61 267 200 135 56 77 127 221 234 220 184 206 226 226 235 247 261 284 283 256 247 254 259 298 284 267 270 268 265 268 267 271 279 276 259 268 278 276 266 261 264 267 265 260 259
309 312 316 324 332 335 342 349 352 353 356 1 360 354 29 16 36 37 10 354 216 208 209 213 204 230 278 282 295 323 161 153 111 118 138 144 144 127 96 83 74 73 133 162 207 206 133 155 177 200 214 226 224 204 217 237 257 280 281 270 264 270 270 261 268 271 264 286 261 250 269 273 270 268 263 272 280 270 263 270 274 272 265 261 262 265 264 258
309 311 314 319 324 329 337 344 350 353 358 8 13 30 87 41 23 323 310 289 255 241 251 238 216 244 260 258 114 115 67 24 45 94 140 148 143 138 107 82 99 112 215 166 173 60 115 186 218 222 221 230 230 208 230 257 300 295 267 274 269 256 269 269 274 280 273 258 259 247 271 275 269 272 266 262 271 269 261 257 267 275 272 265 261 262 264 265
306 309 313 313 315 322 329 340 347 349 356 17 33 61 124 119 144 267 275 298 281 252 246 250 237 254 256 258 264 117 35 299 319 58 154 139 135 181 161 96 140 196 208 157 165 329 179 219 234 232 229 287 334 140 181 234 248 260 253 275 276 262 280 276 266 281 297 214 276 282 275 272 267 265 260 252 252 255 261 255 253 270 276 270 260 259 268 277
291 298 306 306 310 313 319 335 340 346 360 21 42 61 97 345 220 218 133 265 288 275 237 243 229 238 256 274 256 174 204 243 258 258 179 146 112 196 143 130 163 166 177 193 200 199 212 235 237 235 227 255 269 199 128 253 242 232 227 257 272 267 280 272 268 318 329 248 275 294 283 278 261 253 251 248 249 253 267 266 250 257 263 262 263 271 277 274
280 285 294 298 306 307 315 328 329 348 1 18 41 30 16 332 214 195 302 246 281 284 250 225 204 211 236 267 210 172 200 222 216 244 184 157 139 161 157 157 153 168 206 205 207 217 236 242 224 206 189 207 241 250 228 261 265 229 212 227 257 258 253 257 285 337 328 288 296 309 297 288 230 227 246 249 257 259 262 266 261 253 250 257 275 287 272 262
282 282 289 293 298 303 313 321 323 350 354 8 29 5 5 339 237 182 10 341 293 290 280 223 194 220 207 156 161 174 181 210 235 255 183 166 148 140 189 165 147 210 216 203 216 241 256 245 163 157 190 176 204 244 222 217 255 262 214 213 239 255 260 265 290 337 341 311 339 10 317 297 180 168 251 270 301 272 252 248 250 252 253 265 289 279 272 268
284 282 288 291 293 301 310 315 320 342 349 5 5 353 353 329 285 227 70 29 294 276 288 219 179 179 178 96 108 163 127 260 289 5 150 186 166 132 161 196 135 222 201 183 210 244 259 243 183 208 205 141 154 249 224 188 239 282 235 212 230 247 259 265 281 314 304 262 302 59 345 287 292 173 234 248 255 259 253 243 246 253 270 288 277 266 273 279
271 277 288 292 292 298 300 290 306 327 344 344 344 348 341 325 297 260 26 9 297 238 128 280 331 116 186 15 10 133 156 285 346 37 59 2 298 75 137 220 217 229 177 143 288 242 214 221 102 150 145 136 169 249 212 168 189 268 236 199 211 231 242 237 231 225 238 278 300 133 146 278 288 253 217 220 213 249 258 253 258 272 294 288 273 269 273 280
261 267 284 294 292 289 278 269 296 317 310 308 328 336 337 323 291 1 52 325 286 123 101 272 140 93 289 48 56 100 208 305 50 325 332 44 292 45 326 232 195 212 187 146 246 246 167 194 186 149 121 155 200 215 172 154 183 244 194 152 169 199 212 162 163 201 251 337 304 215 143 259 278 272 74 176 214 249 262 260 271 293 297 285 277 277 283 294
266 262 272 286 287 278 270 260 262 270 274 290 313 324 336 322 296 63 83 246 279 72 80 208 131 33 359 46 32 60 6 334 117 269 329 66 256 72 182 223 167 211 248 173 234 258 200 219 189 152 145 204 211 192 161 161 193 220 136 106 87 89 89 111 146 146 75 314 261 203 162 216 277 278 78 70 225 245 261 267 272 269 266 273 276 282 295 312
268 262 266 273 268 258 252 248 251 255 261 266 291 315 332 329 4 79 222 240 1 314 230 107 161 274 64 73 340 320 223 273 279 353 9 87 342 32 161 202 118 156 274 295 263 256 252 330 144 162 188 201 175 131 171 174 175 137 107 69 32 37 39 58 78 97 81 279 238 187 183 186 279 284 129 161 209 211 251 287 288 283 281 276 274 281 294 312
267 259 256 256 253 243 219 240 256 249 245 252 289 318 331 7 75 178 236 240 52 281 178 88 315 48 99 119 274 280 194 264 294 96 79 111 33 31 32 229 89 63 320 315 286 269 248 150 221 246 221 152 123 97 329 118 124 104 89 62 13 334 11 30 355 54 148 262 240 187 183 177 236 260 140 257 249 215 227 268 288 298 305 287 287 300 301 311
275 262 250 249 246 237 221 216 256 239 222 224 293 332 32 23 254 217 244 352 3 261 143 158 280 98 122 124 250 235 191 249 198 141 159 153 153 171 196 200 167 318 296 250 283 307 269 210 225 280 231 161 140 142 332 13 94 108 107 98 34 317 345 356 314 106 205 258 262 186 171 191 243 256 280 275 275 264 233 221 249 273 282 286 301 315 312 318
273 271 262 254 240 231 227 222 229 219 173 162 178 15 84 227 248 203 191 276 251 256 85 114 106 135 143 88 257 224 186 219 193 169 171 140 164 241 247 222 180 224 262 228 320 314 288 263 194 173 257 181 153 168 236 228 155 149 152 148 150 184 262 266 258 259 255 271 296 197 174 244 275 276 244 248 268 285 249 218 230 249 264 282 301 308 306 316
273 274 271 266 246 236 236 231 230 215 161 143 113 50 126 237 249 103 159 230 250 324 338 109 79 65 170 208 241 200 201 249 171 151 178 126 132 260 258 242 201 182 226 263 306 222 254 284 205 177 242 176 174 194 183 143 157 178 163 145 164 178 198 234 230 254 273 282 313 254 190 218 261 262 224 229 256 285 268 249 260 264 265 286 300 301 307 317
271 272 273 270 253 240 235 232 230 213 174 136 97 141 212 239 253 174 221 232 268 303 309 80 94 323 272 257 270 227 216 248 126 127 182 166 184 217 214 218 195 163 148 212 260 168 223 268 251 241 269 160 181 219 133 113 140 211 136 119 203 193 174 227 241 237 256 284 266 236 225 226 239 267 264 250 261 275 284 297 304 291 288 311 303 303 318 321
273 273 272 261 252 241 229 227 222 207 184 135 139 216 227 235 219 201 212 191 193 200 306 309 175 228 275 272 280 273 218 230 170 139 212 203 216 222 217 225 191 173 172 185 223 203 233 267 268 6 319 185 189 202 136 147 192 170 131 177 225 171 144 205 265 247 204 250 244 230 253 275 294 287 297 358 328 300 315 330 315 290 299 346 323 323 330 320
282 276 262 246 246 238 225 222 211 196 182 144 208 225 232 229 201 194 190 147 167 142 127 255 221 199 248 263 271 282 261 249 227 188 227 245 246 210 205 250 202 186 198 207 233 234 235 269 252 180 217 234 182 113 6 317 137 133 178 219 211 121 133 144 265 286 231 247 247 234 256 278 299 282 309 1 330 313 322 333 329 316 340 11 336 314 307 308
288 278 262 252 245 231 220 215 197 181 160 168 232 237 230 224 215 192 171 149 150 91 135 232 237 203 221 250 265 224 180 219 212 177 214 238 243 184 164 238 222 194 214 225 262 275 226 265 271 208 195 227 71 75 314 322 70 142 201 232 119 176 231 159 186 234 244 252 255 229 249 265 260 265 288 293 288 291 307 330 349 343 347 343 322 319 321 325
255 262 271 264 243 224 210 196 180 168 158 204 231 240 226 232 238 196 184 168 117 99 228 237 240 251 252 232 236 229 197 197 183 211 215 219 245 201 149 216 242 219 231 194 208 265 100 244 270 346 123 161 52 115 210 260 9 58 278 309 92 175 204 201 193 200 245 258 263 245 241 248 247 258 274 276 273 260 276 322 346 335 333 332 329 334 333 330
175 159 264 317 216 202 192 176 164 170 210 215 231 239 232 257 260 238 225 214 199 218 233 228 215 234 256 244 233 251 236 201 199 219 221 236 271 258 199 191 167 160 207 167 203 219 91 228 245 307 336 264 243 219 194 181 166 129 216 256 236 211 211 261 251 201 242 258 260 256 248 236 240 250 263 272 268 200 218 293 322 317 331 336 331 328 327 336
157 98 259 341 142 173 170 163 171 193 205 228 244 245 255 275 276 293 280 211 216 243 226 205 212 230 259 269 257 239 216 230 217 214 234 249 259 261 253 148 147 155 76 98 216 215 179 239 250 291 295 255 248 229 187 182 179 171 194 209 216 223 240 274 261 206 207 238 235 253 258 239 240 280 277 279 271 210 222 293 308 305 314 311 314 329 347 6
206 171 317 355 168 166 159 174 209 192 210 224 238 241 251 281 261 261 283 198 211 262 312 243 224 231 246 256 259 233 213 239 215 212 244 236 221 235 244 103 117 124 109 155 237 216 145 160 255 257 250 250 263 264 216 184 171 164 214 209 207 201 191 234 250 235 226 235 233 253 262 240 218 254 274 283 290 291 297 318 325 330 347 353 356 6 15 23
207 236 346 11 175 169 159 223 210 207 230 237 284 259 232 265 257 248 249 219 207 231 269 261 228 237 238 239 247 231 217 227 214 220 241 236 233 248 297 61 69 77 95 260 279 290 107 120 246 255 256 260 270 280 283 146 117 354 265 228 209 215 219 233 245 265 263 248 247 260 261 244 206 236 262 287 302 304 312 345 9 15 23 28 26 25 23 20
319 281 328 250 191 183 180 212 213 225 229 240 265 252 243 237 238 252 255 230 199 203 230 243 243 250 238 223 233 230 223 236 240 237 231 228 248 304 32 34 35 64 241 241 251 276 272 222 245 278 284 285 284 289 310 12 111 219 245 238 229 237 252 261 269 286 272 244 242 256 260 252 251 272 289 301 301 301 326 13 36 40 33 27 24 24 20 15
346 272 278 274 240 226 223 216 219 227 229 243 249 247 256 251 223 237 248 233 197 187 231 265 266 285 269 254 269 263 237 233 257 264 233 229 263 354 22 12 32 64 311 48 83 265 263 241 250 263 261 264 270 266 271 299 195 209 252 258 250 234 236 254 268 261 255 237 235 250 264 263 274 305 297 294 308 328 6 30 37 36 30 25 22 18 15 15
14 262 291 306 296 274 259 281 264 207 221 238 241 241 245 251 259 215 206 225 226 215 235 258 256 276 271 252 258 266 251 229 231 255 263 264 268 331 5 15 41 27 354 52 34 336 207 241 246 245 250 256 265 269 284 307 280 268 278 277 279 268 245 251 265 251 263 268 251 253 272 276 281 298 302 324 352 5 28 36 31 29 26 21 17 13 14 14
115 223 219 317 320 271 258 289 286 225 231 225 224 239 242 248 263 249 208 228 239 226 237 246 238 229 225 232 245 253 251 237 230 237 251 259 268 309 330 51 53 12 22 41 5 22 147 264 252 248 256 258 266 276 285 291 282 276 283 285 284 285 277 271 265 258 266 277 266 268 281 282 285 298 321 354 6 14 39 42 35 33 23 18 18 13 11 9
308 243 246 307 311 255 242 273 316 310 289 263 239 250 264 258 254 249 242 264 282 216 230 245 236 230 231 236 240 246 261 260 258 251 257 295 331 333 337 0 44 24 38 18 342 48 172 264 252 256 266 266 271 279 278 277 277 275 278 280 279 279 275 266 263 265 267 266 271 281 281 278 285 305 359 27 16 18 46 49 41 36 23 22 24 17 13 7
356 307 303 334 339 282 298 316 335 331 288 281 272 232 259 265 258 255 261 334 300 251 218 242 241 222 224 224 214 224 250 261 274 275 126 4 329 303 325 323 295 50 42 12 337 309 236 264 258 262 276 282 278 278 276 274 276 275 271 268 268 269 265 264 267 270 266 262 265 272 271 273 293 359 42 44 26 23 63 73 49 38 26 21 21 17 14 6
33 241 317 357 318 276 329 325 320 329 291 274 256 233 247 255 258 264 256 229 255 245 213 244 251 211 179 185 198 228 241 238 262 257 142 126 268 223 260 273 276 359 356 345 320 284 261 284 314 313 301 290 281 277 276 275 274 277 276 269 263 261 261 266 270 268 264 264 267 269 268 272 20 53 33 28 22 16 39 61 55 43 27 19 18 12 4 358
208 344 354 358 292 241 123 28 332 311 268 247 238 245 252 252 266 288 298 241 268 259 150 110 323 16 104 189 211 250 39 84 118 256 140 162 231 262 279 275 317 332 321 292 263 300 290 302 325 317 289 279 280 281 286 294 296 284 274 265 261 261 263 264 262 262 267 272 278 280 274 272 61 42 12 14 10 5 9 10 24 41 19 13 13 4 354 350
173 315 170 150 278 250 139 44 334 207 234 248 277 298 279 295 1 339 295 55 58 54 73 72 47 28 340 290 296 26 91 101 158 237 228 224 238 245 244 251 257 262 270 269 261 249 250 267 286 279 272 272 273 280 302 326 311 283 265 256 257 261 265 263 262 277 331 281 271 281 284 76 44 18 18 5 355 357 352 338 337 0 354 359 3 355 344 339